#timestamp,LO_Frequency,Hit,StdDev 
1506330015.1,286046996.5,N
1506330016.0,286046996.5,N
1506330035.8,286046993.3,N
1506330055.7,286046996.9,N
1506330075.5,286046996.7,N
1506330095.3,286046998.0,N
1506330115.1,286046995.0,N
1506330135.9,286046997.9,N
1506330155.7,286046999.9,N
1506330175.5,286047001.8,N
1506330195.4,286046998.9,N
1506330215.2,286046995.0,N
1506330235.0,286046996.7,N
1506330235.9,286046996.7,N
1506330255.8,286046997.4,N
1506330275.6,286046997.2,N
1506330295.4,286046992.2,N
1506330315.3,286046998.0,N
1506330335.1,286046994.0,N
1506330336.0,286046994.0,N
1506330355.8,286046996.1,N
1506330375.7,286046994.9,N
1506330395.5,286046995.6,N
1506330415.3,286046997.1,N
1506330435.2,286046993.8,N
1506330455.9,286046992.2,N
1506330475.7,286046992.4,N
1506330495.5,286046994.7,N
1506330515.4,286046992.2,N
1506330535.2,286046992.7,Y
1506330555.0,286046996.1,P
1506330556.0,286046996.1,P
1506330575.8,286047000.0,N
1506330595.6,286047000.5,N
1506330615.4,286046997.7,N
1506330635.3,286046998.5,N
1506330655.1,286047000.8,N
1506330675.8,286047000.5,N
1506330695.7,286047002.9,N
1506330715.5,286047006.5,N
1506330735.1,286047005.6,N
1506330736.0,286047005.6,N
1506330755.8,286047001.8,N
1506330775.6,286047002.1,N
1506330795.5,286047000.6,N
1506330815.3,286047003.4,N
1506330835.1,286047003.7,N
1506330855.9,286047002.3,N
1506330875.7,286046997.0,N
1506330895.5,286046994.9,N
1506330915.4,286046997.6,N
1506330935.2,286047000.6,N
1506330955.0,286046999.9,N
1506330955.9,286046999.9,N
1506330975.7,286047002.1,N
1506330995.6,286046998.6,N
1506331015.4,286047002.4,N
1506331035.2,286046999.3,N
1506331055.1,286046998.2,N
1506331056.0,286046998.2,N
1506331075.8,286047001.4,N
1506331095.6,286047003.7,N
1506331115.5,286047003.9,N
1506331135.3,286046999.1,N
1506331155.1,286046995.3,N
1506331175.9,286046995.2,N
1506331195.7,286046994.0,N
1506331215.5,286046995.6,N
1506331235.4,286046993.9,N
1506331255.2,286046993.6,N
1506331275.0,286046996.1,N
1506331275.9,286046996.1,N
1506331295.8,286046996.4,N
1506331315.6,286046993.4,N
1506331335.4,286046991.9,N
1506331355.3,286046995.5,N
1506331375.1,286046996.2,N
1506331376.0,286046996.2,N
1506331395.8,286046994.9,N
1506331415.6,286046996.4,N
1506331435.8,286046996.0,N
1506331455.6,286046997.6,N
1506331475.4,286046997.6,N
1506331495.2,286046996.7,N
1506331515.1,286046997.4,N
1506331516.0,286046997.4,N
1506331535.8,286046995.4,N
1506331555.6,286046995.9,N
1506331575.5,286046996.0,N
1506331595.3,286046993.8,N
1506331615.1,286046997.4,N
1506331635.9,286046996.6,N
1506331655.7,286046999.4,N
1506331675.5,286047004.0,N
1506331695.4,286046998.8,N
1506331715.2,286046999.5,N
1506331735.0,286046996.5,N
1506331735.9,286046996.5,N
1506331755.8,286046999.4,N
1506331775.6,286046996.8,N
1506331795.4,286046995.7,N
1506331815.3,286046997.6,N
1506331835.1,286046993.8,N
1506331836.0,286046993.8,N
1506331855.8,286046993.7,N
1506331875.7,286046993.8,Y
1506331895.5,286046998.4,P
1506331915.3,286046998.9,N
1506331935.1,286046998.3,N
1506331955.9,286046999.5,N
1506331975.7,286047002.6,N
1506331995.5,286047003.3,N
1506332015.4,286047006.7,Y
1506332035.2,286047009.1,P
1506332055.0,286047004.7,N
1506332055.9,286047004.7,N
1506332075.8,286047004.4,N
1506332095.6,286047002.7,N
1506332115.4,286047001.2,N
1506332135.3,286046999.0,N
1506332155.1,286046995.5,N
1506332156.0,286046995.5,N
1506332175.8,286046994.9,N
1506332195.7,286046999.7,N
1506332215.5,286046998.3,N
1506332235.3,286047000.8,N
1506332255.2,286047002.2,N
1506332275.9,286046999.7,N
1506332295.7,286047001.4,N
1506332315.6,286047002.1,N
1506332335.4,286047000.4,N
1506332355.2,286047000.7,N
1506332375.1,286047000.4,N
1506332376.0,286047000.4,N
1506332395.8,286047001.3,N
1506332415.6,286047005.5,N
1506332435.5,286047004.4,N
1506332455.3,286047001.3,N
1506332475.1,286047001.0,N
1506332495.8,286047001.6,N
1506332515.7,286046998.5,N
1506332535.5,286047000.5,N
1506332555.3,286047004.2,N
1506332575.2,286046996.8,N
1506332595.9,286046997.2,N
1506332615.7,286046995.8,N
1506332635.6,286046994.9,N
1506332655.4,286046997.6,N
1506332675.2,286046997.8,N
1506332695.1,286046994.3,N
1506332696.0,286046994.3,N
1506332715.8,286046993.9,N
1506332735.6,286046991.8,N
1506332755.5,286046995.5,N
1506332775.3,286046995.4,N
1506332795.1,286046997.0,N
1506332815.8,286046997.7,N
1506332835.7,286047001.2,N
1506332855.5,286047001.2,N
1506332875.3,286047000.9,N
1506332895.2,286046999.7,N
1506332915.9,286047000.8,N
1506332935.7,286047002.1,N
1506332955.6,286046998.9,N
1506332975.4,286046999.8,N
1506332995.2,286047003.3,N
1506333015.1,286047001.8,N
1506333016.0,286047001.8,N
1506333035.8,286047000.3,N
1506333055.6,286047002.0,N
1506333075.5,286047000.2,N
1506333095.3,286046998.2,N
1506333115.1,286046996.6,N
1506333135.9,286046996.7,N
1506333155.7,286046997.1,N
1506333175.5,286046999.0,N
1506333195.3,286046998.0,N
1506333215.2,286046997.5,N
1506333235.0,286046997.3,N
1506333235.9,286046997.3,N
1506333255.7,286046998.1,N
1506333275.6,286046999.5,N
1506333295.4,286046997.9,N
1506333315.2,286046999.0,N
1506333335.1,286046998.6,N
1506333336.0,286046998.6,N
1506333355.8,286046998.3,N
1506333375.6,286046999.3,N
1506333395.5,286046998.7,N
1506333415.3,286046999.6,N
1506333435.1,286047000.8,N
1506333455.9,286047000.3,N
1506333475.7,286047002.7,N
1506333495.5,286046998.7,N
1506333515.4,286046994.9,N
1506333535.2,286046996.8,N
1506333555.0,286046999.3,N
1506333555.9,286046999.3,N
1506333575.8,286047000.5,N
1506333595.6,286046999.6,N
